STARLINK-31888, 59788

Orbit data source: Space-Track

STARLINK-31888, 59788 is a payload satellite owned by SpaceX/Seattle (US) in LEO that was launched on Sat, 18 May 2024 UTC via an FALCON 9 launch vehicle from the Air Force Eastern Test Range (AFETR). Payload-class satellites include a variety of spacecraft equipped with specific instruments for various scientific and technological missions. These include communications satellites like Starlink; space stations such as the ISS; scientific satellites like the Hubble; Earth observation satellites from companies like Planet Labs, Umbra, and HawkEye 360; GPS; miniature CubeSats for education and research; and military/defense satellites.

Loading next visibility...
Identifier
59788, 2024-093G
Orbit
LEO
Country
Flag of USUS
Related business
Manufacturer
SpaceX/Seattle
Mission
Operational Commercial Communications
Bus & Motor
STARLINK V2M, Unknown motor
Mass
730 kg wet, ~700 kg dry
Launch date (UTC)
2024-05-18 (1 year ago)
Launch vehicle
FALCON 9
Launch site
Air Force Eastern Test Range (AFETR)
Object type
Payload
Rocket body
Debris
Shape & HBR
Box + 2 Pan, 17.7 m
Radar Cross Section
33.884 m², Large (>1 m²)

Expand to show TLE details & history
Last TLE update: 13 hours ago

TLE from 13 hours ago
0 STARLINK-31888
1 59788U 24093G   25304.45553757  .00004163  00000-0  16081-3 0  9993
2 59788  42.9993 218.4922 0000842 248.6437 111.4325 15.27563214 82936
Epoch: 2025-10-31T10:55Z
TLE epoch observation values (Epoch: 2025-10-31T10:55:58.446Z)
Latitude
0.00001°
Longitude
14.49897°
Altitude
483.086 km
Speed
7.626 km/s
True Right ascension
14h 33m 58s
True Declination
0° 00' 00"
Sunlit
Object was in daylight at epoch
Visualization orbit readout
Latitude
Unknown
Longitude
Unknown
Altitude
Unknown
Speed
Unknown
Apparent Right ascension
Unknown
Apparent Declination
Unknown
Sunlit
N/A
Visualization observer readout
Local Sidereal Time
19:40:23
Azimuth
Unknown
Elevation
Unknown
Doppler factor
Unknown
Orbital elements
Apogee altitude
485.623 km
Perigee altitude
484.467 km
Semi-major axis
6,863.182 km
Eccentricity
0.00008
Inclination
42.9993°
RAAN
218.4922°
Arg. of periapsis
248.6437°
True anomaly
111.44148°
Mean anomaly
111.4325°
Eccentric anomaly
111.43699°
Mean motion
3.81729 °/min
Orbital period
94.31 mins
BSTAR
0.00016081
Loading maneuver chart data...
Computing Atmospheric mass density...
Loading historical data...
Loading historical data...
Loading historical data...
Loading historical data...
Loading historical data...
Loading historical data...
Loading historical data...

Documentation

Showing up to 5 results
|